Location: Paris
(48.6709°N, 2.3750°E)
Time: 23:57:33
(UTC+02:00)

QB50P2 - Pass Details

Date: 01 July 2022
Orbit: 590 x 605 km, 97.9° (Epoch: 15 August)

Event Time Altitude Azimuth Distance (km) Brightness Sun altitude
Rises 03:40:12 0° 10° (N) 2,861 ? -14.4°
Reaches altitude 10° 03:42:23 10° 7° (N) 1,956 ? -14.3°
Maximum altitude 03:46:35 62° 288° (WNW) 685 ? -14.0°
Enters shadow 03:49:10 22° 213° (SSW) 1,321 ? -13.8°
